Location: Borger
(52.9222°N, 6.7926°E)
Time: 15:48:05
(UTC+00:00)

Cosmos 1975 - Pass Details

Date: 15 May 2026
Orbit: 471 x 485 km, 82.5° (Epoch: 10 June)

Event Time Altitude Azimuth Distance (km) Brightness Sun altitude
Rises 21:52:32 0° 355° (N) 2,576 7.7 -15.1°
Reaches altitude 10° 21:54:49 10° 5° (N) 1,689 6.3 -15.2°
Maximum altitude 21:58:11 33° 71° (ENE) 844 3.7 -15.4°
Enters shadow 21:59:42 23° 116° (ESE) 1,067 3.9 -15.5°
